[[{"header":{"parameterUnit":"m.s-1","parameterCategory":1,"la1":30.2991,"la2":30.254,"lo1":-89.0895,"lo2":-89.0444,"dy":0.0017,"dx":0.0017,"nx":28,"ny":28,"refTime":"2025-01-01T03:00:00:Z","depth":0,"parameterNumber":2,"parameterNumberName":"U-component_of_WINDS"},"data":[0,0,0,0,0,0,0,0,0,0,0,0,0,0,0,0,0,0,0,0,0,0,0,0,0,0,0,0,0,0,0,0,0,0,0,0,0,0,0,0,0,0,0,0,0,0,0,0,0,0,0,0,0,0,0,0,0,0,-0.3993,-0.3994,0,-0.4043,-0.4044,-0.4044,-0.4025,-0.4024,-0.4023,-0.4022,-0.4077,-0.408,-0.4082,0,0,0,0,0,0,0,0,0,0,0,0,0,-0.3884,-0.3886,-0.3993,-0.3994,-0.3994,-0.4043,-0.4044,-0.4044,-0.4026,-0.4024,-0.4023,-0.4022,-0.4076,-0.4079,-0.4082,0,0,0,0,0,0,0,0,0,0,0,0,0,-0.3933,-0.3887,-0.3993,-0.3991,-0.3991,-0.4043,-0.4044,-0.4045,-0.4026,-0.4024,-0.4022,-0.4021,-0.4075,-0.4079,-0.4083,-0.4141,0,0,-0.4095,-0.4096,0,0,0,0,0,0,0,0,-0.393,-0.3937,-0.399,-0.3991,-0.3991,-0.4026,-0.4026,-0.4077,-0.4026,-0.4013,-0.4022,-0.402,-0.4062,-0.4067,-0.408,-0.4144,-0.4146,-0.4095,-0.4097,-0.4099,-0.41,0,0,0,0,0,0,0,-0.3927,-0.3935,-0.4013,-0.3991,-0.3992,-0.3988,-0.3993,-0.4035,-0.4047,-0.4014,-0.4013,-0.4019,-0.4062,-0.4076,-0.4081,-0.4147,-0.4095,-0.4098,-0.4101,-0.4102,-0.4261,-0.4263,0,0,0,0,0,0,-0.3923,-0.3932,-0.4011,-0.4014,-0.3956,-0.3992,-0.3997,-0.4017,-0.4046,-0.4049,-0.402,-0.4017,-0.4071,-0.4077,-0.4083,-0.4154,-0.4099,-0.4102,-0.4105,-0.4259,-0.4262,-0.4264,0,0,0,0,0,0,-0.392,-0.393,-0.4009,-0.3973,-0.3983,-0.3995,-0.4018,-0.4019,-0.4033,-0.4051,-0.4053,-0.4033,-0.407,-0.4078,-0.4127,-0.4156,-0.4104,-0.4108,-0.4257,-0.426,-0.4263,-0.4296,0,0,0,0,0,0,-0.3917,-0.3929,-0.3951,-0.3973,-0.3985,-0.4051,-0.4019,-0.4021,-0.4039,-0.4037,-0.4063,-0.4066,-0.4069,-0.4121,-0.413,-0.416,-0.4111,-0.4255,-0.4258,-0.4262,-0.4292,-0.4299,-0.4306,0,0,0,0,0,-0.3914,-0.3959,-0.3952,-0.3962,-0.4012,-0.4053,-0.406,-0.4061,-0.4042,-0.4064,-0.4075,-0.4065,-0.415,-0.4126,-0.4137,-0.4168,-0.4253,-0.4257,-0.4262,-0.4289,-0.4298,-0.4306,0,0,0,0,0,0,-0.3941,-0.3962,-0.3955,-0.4008,-0.4029,-0.405,-0.4078,-0.407,-0.4098,-0.4094,-0.4096,-0.4102,-0.4153,-0.4165,-0.4138,-0.4226,-0.4199,-0.4206,-0.4216,-0.4225,-0.4231,-0.4228,-0.4114,0,0,0,0,0,-0.3953,-0.3984,-0.4001,-0.4047,-0.4057,-0.4066,-0.4084,-0.4083,-0.4105,-0.4114,-0.4129,-0.4151,-0.4183,-0.4204,-0.4235,-0.4293,-0.4299,-0.432,-0.4326,-0.4332,-0.4338,-0.4371,-0.438,-0.4278,-0.4278,-0.4278,0,0,-0.3979,-0.3994,-0.4014,-0.4052,-0.4068,-0.4101,-0.4073,-0.4109,-0.4134,-0.412,-0.4167,-0.4178,-0.4204,-0.4258,-0.4282,-0.427,-0.4367,-0.4337,-0.4341,-0.4345,-0.4376,-0.4386,-0.4394,-0.4281,-0.4281,-0.428,0,0,-0.4044,-0.4057,-0.4097,-0.4113,-0.4137,-0.4142,-0.4152,-0.4173,-0.418,-0.4227,-0.4217,-0.4247,-0.4301,-0.432,-0.4337,-0.4407,-0.4399,-0.4416,-0.4452,-0.4484,-0.4492,-0.4499,-0.4526,-0.4535,-0.4422,-0.4422,-0.4422,0,-0.4073,-0.4121,-0.4119,-0.4156,-0.4174,-0.416,-0.4201,-0.4217,-0.425,-0.4263,-0.4248,-0.4316,-0.4332,-0.4391,-0.4408,-0.4421,-0.4433,-0.4414,-0.4491,-0.4498,-0.4505,-0.453,-0.454,-0.4424,-0.4424,-0.4424,-0.4424,0,-0.4157,-0.4191,-0.422,-0.4251,-0.4272,-0.4311,-0.4315,-0.4337,-0.4334,-0.4341,-0.4389,-0.4407,-0.4441,-0.4455,-0.4453,-0.4513,-0.4505,-0.449,-0.4463,-0.4517,-0.454,-0.455,-0.4427,-0.4427,-0.4426,-0.4425,0,0,-0.4243,-0.427,-0.4282,-0.4295,-0.432,-0.4346,-0.4384,-0.4416,-0.4435,-0.4458,-0.4491,-0.4537,-0.4523,-0.4542,-0.4541,-0.4569,-0.4625,-0.4551,-0.4552,-0.4565,-0.4694,-0.4706,-0.4717,-0.4618,-0.462,-0.4621,-0.4692,0,-0.431,-0.4376,-0.4375,-0.4437,-0.4468,-0.4455,-0.4488,-0.4508,-0.4515,-0.4543,-0.4552,-0.4585,-0.4563,-0.4575,-0.4601,-0.4612,-0.4651,-0.4607,-0.4651,-0.4652,-0.4647,-0.4729,-0.4743,-0.4809,-0.4701,-0.4703,-0.4704,0,-0.4398,-0.4423,-0.4487,-0.4507,-0.452,-0.455,-0.4579,-0.4606,-0.4627,-0.4631,-0.4651,-0.4646,-0.4686,-0.4656,-0.4711,-0.4682,-0.4699,-0.4707,-0.471,-0.4716,-0.4683,-0.4739,-0.4829,-0.484,-0.4718,-0.4717,-0.4716,0,-0.4456,-0.4505,-0.455,-0.4562,-0.4586,-0.4607,-0.4618,-0.4638,-0.4657,-0.4682,-0.4695,-0.4725,-0.4742,-0.4765,-0.4769,-0.4747,-0.4825,-0.4796,-0.4831,-0.4831,-0.485,-0.4849,-0.4946,-0.4858,-0.4858,-0.4857,-0.4857,0,-0.4533,-0.4574,-0.4576,-0.4604,-0.4649,-0.4647,-0.4692,-0.4702,-0.4719,-0.4749,-0.4739,-0.4768,-0.477,-0.48,-0.4802,-0.4849,-0.4856,-0.4861,-0.4862,-0.4863,-0.4863,-0.4876,-0.4873,-0.486,-0.4859,-0.4859,-0.4858,0,-0.4606,-0.4609,-0.4658,-0.4675,-0.4681,-0.4713,-0.4729,-0.4756,-0.4761,-0.48,-0.4809,-0.4818,-0.4853,-0.4858,-0.4898,-0.49,-0.4956,-0.4951,-0.4949,-0.4949,-0.4984,-0.4982,-0.5095,-0.511,-0.501,-0.5011,-0.5012,0,-0.4656,-0.4687,-0.4707,-0.4726,-0.4738,-0.4768,-0.4787,-0.4786,-0.4807,-0.4833,-0.4857,-0.489,-0.4917,-0.4973,-0.4984,-0.5015,-0.5012,-0.5049,-0.5017,-0.5017,-0.5015,-0.5013,-0.5017,-0.5057,-0.5058,-0.5059,-0.5059,0,-0.4745,-0.4744,-0.4772,-0.4799,-0.4822,-0.4844,-0.4865,-0.4881,-0.4883,-0.4906,-0.494,-0.4961,-0.5002,-0.5035,-0.5066,-0.5078,-0.507,-0.5069,-0.5079,-0.5082,-0.508,-0.5083,-0.4968,-0.5067,-0.5066,-0.5066,-0.5065,-0.5065,-0.4809,-0.4836,-0.4854,-0.4885,-0.49,-0.4919,-0.4946,-0.4953,-0.4982,-0.5014,-0.5012,-0.505,-0.507,-0.511,-0.5125,-0.5155,-0.5143,-0.5157,-0.5161,-0.5165,-0.517,-0.5073,-0.516,-0.516,-0.516,-0.516,-0.516,0,-0.4899,-0.4909,-0.4937,-0.4966,-0.499,-0.4977,-0.4999,-0.5021,-0.5055,-0.5074,-0.5099,-0.5139,-0.5171,-0.5184,-0.5216,-0.5238,-0.5235,-0.5246,-0.5246,-0.5249,-0.5178,-0.5167,-0.5248,-0.5248,-0.5248,-0.5248,-0.5248,-0.5248,-0.4948,-0.4993,-0.4995,-0.5047,-0.5058,-0.5094,-0.5108,-0.5126,-0.5141,-0.5186,-0.5212,-0.5219,-0.5236,-0.5269,-0.5298,-0.5301,-0.5314,-0.5327,-0.5329,-0.5263,-0.5254,-0.5246,-0.5235,-0.533,-0.533,-0.5398,-0.5398,-0.5399]},{"header":{"parameterUnit":"m.s-1","parameterCategory":1,"la1":30.2991,"la2":30.254,"lo1":-89.0895,"lo2":-89.0444,"dy":0.0017,"dx":0.0017,"nx":28,"ny":28,"refTime":"2025-01-01T03:00:00:Z","depth":0,"parameterNumber":3,"parameterNumberName":"V-component_of_WINDS"},"data":[0,0,0,0,0,0,0,0,0,0,0,0,0,0,0,0,0,0,0,0,0,0,0,0,0,0,0,0,0,0,0,0,0,0,0,0,0,0,0,0,0,0,0,0,0,0,0,0,0,0,0,0,0,0,0,0,0,0,-6.0287,-6.0288,0,-6.0414,-6.0416,-6.0417,-6.0339,-6.0336,-6.0332,-6.0328,-6.0456,-6.0463,-6.0469,0,0,0,0,0,0,0,0,0,0,0,0,0,-5.9972,-5.9979,-6.0287,-6.0288,-6.029,-6.0414,-6.0416,-6.0418,-6.034,-6.0335,-6.0331,-6.0327,-6.0454,-6.0462,-6.047,0,0,0,0,0,0,0,0,0,0,0,0,0,-6.0105,-5.9981,-6.0286,-6.0266,-6.0266,-6.0414,-6.0416,-6.0418,-6.0341,-6.0335,-6.033,-6.0325,-6.0451,-6.0461,-6.0471,-6.0646,0,0,-6.0503,-6.0507,0,0,0,0,0,0,0,0,-6.0098,-6.0117,-6.0268,-6.0268,-6.0267,-6.0355,-6.0352,-6.0494,-6.0342,-6.0312,-6.0328,-6.0322,-6.0427,-6.0439,-6.0475,-6.0652,-6.0657,-6.0503,-6.051,-6.0514,-6.0517,0,0,0,0,0,0,0,-6.0089,-6.0111,-6.0337,-6.027,-6.027,-6.025,-6.0262,-6.0379,-6.0399,-6.0314,-6.0309,-6.0325,-6.0426,-6.0465,-6.0477,-6.0659,-6.0503,-6.0512,-6.0519,-6.0523,-6.0985,-6.0991,0,0,0,0,0,0,-6.0082,-6.0104,-6.0333,-6.0341,-6.0167,-6.026,-6.0274,-6.0333,-6.0398,-6.0402,-6.033,-6.0321,-6.045,-6.0465,-6.0481,-6.0691,-6.0514,-6.0524,-6.053,-6.0979,-6.0987,-6.0993,0,0,0,0,0,0,-6.0075,-6.0103,-6.0328,-6.0221,-6.0248,-6.0271,-6.0338,-6.0338,-6.0377,-6.0409,-6.0412,-6.0367,-6.0446,-6.0467,-6.0606,-6.0694,-6.0528,-6.0538,-6.0972,-6.0981,-6.099,-6.111,0,0,0,0,0,0,-6.0066,-6.0101,-6.0168,-6.0223,-6.0254,-6.0452,-6.0343,-6.0345,-6.0396,-6.0386,-6.0445,-6.0449,-6.0444,-6.0591,-6.0616,-6.0705,-6.0546,-6.0964,-6.0976,-6.0987,-6.1098,-6.1122,-6.1143,0,0,0,0,0,-6.0056,-6.0196,-6.0172,-6.02,-6.0339,-6.0457,-6.0474,-6.0466,-6.0403,-6.0471,-6.0491,-6.0447,-6.068,-6.0606,-6.0633,-6.0727,-6.0959,-6.0973,-6.0986,-6.1088,-6.1117,-6.1142,0,0,0,0,0,0,-6.015,-6.0203,-6.0177,-6.034,-6.0395,-6.0443,-6.0528,-6.0497,-6.057,-6.0558,-6.0543,-6.0557,-6.0702,-6.0728,-6.0644,-6.0899,-6.0809,-6.0829,-6.0877,-6.0905,-6.0927,-6.0918,-6.0554,0,0,0,0,0,-6.019,-6.0282,-6.0323,-6.0462,-6.0491,-6.0506,-6.0556,-6.0546,-6.0601,-6.0624,-6.0654,-6.0709,-6.0794,-6.0851,-6.0931,-6.1101,-6.1113,-6.1179,-6.1201,-6.1219,-6.1237,-6.1329,-6.1359,-6.1039,-6.1038,-6.1038,0,0,-6.0273,-6.0313,-6.0372,-6.0483,-6.0524,-6.0619,-6.0525,-6.063,-6.07,-6.0639,-6.0773,-6.0797,-6.0857,-6.1012,-6.1082,-6.1038,-6.1327,-6.1236,-6.1251,-6.1259,-6.1346,-6.1376,-6.1403,-6.1048,-6.1046,-6.1045,0,0,-6.0474,-6.0513,-6.0635,-6.0678,-6.0742,-6.075,-6.0779,-6.0833,-6.0847,-6.0981,-6.0938,-6.102,-6.1167,-6.1212,-6.1254,-6.1472,-6.1434,-6.1498,-6.1614,-6.1704,-6.1729,-6.1752,-6.183,-6.1858,-6.1515,-6.1516,-6.1516,0,-6.0569,-6.0712,-6.07,-6.0809,-6.0859,-6.0809,-6.0931,-6.0973,-6.1059,-6.1095,-6.1044,-6.1228,-6.1265,-6.143,-6.1484,-6.1519,-6.1552,-6.1492,-6.1727,-6.1749,-6.177,-6.1844,-6.1874,-6.1523,-6.1522,-6.1522,-6.1521,0,-6.0826,-6.0925,-6.1015,-6.1102,-6.1161,-6.1276,-6.1281,-6.1343,-6.1326,-6.134,-6.1477,-6.1519,-6.1607,-6.1645,-6.163,-6.1809,-6.178,-6.1729,-6.1638,-6.1808,-6.1878,-6.1906,-6.1534,-6.1531,-6.1529,-6.1527,0,0,-6.109,-6.1169,-6.1203,-6.1241,-6.1308,-6.1384,-6.1496,-6.1584,-6.1637,-6.1698,-6.1791,-6.1917,-6.187,-6.1918,-6.1907,-6.1986,-6.2156,-6.1925,-6.1926,-6.1967,-6.2357,-6.2396,-6.2429,-6.2131,-6.2136,-6.2141,-6.2352,0,-6.1296,-6.1493,-6.1486,-6.167,-6.1762,-6.1715,-6.1813,-6.1864,-6.1879,-6.1958,-6.1974,-6.2064,-6.1995,-6.2024,-6.2099,-6.212,-6.2234,-6.2104,-6.2218,-6.2222,-6.2206,-6.2465,-6.2507,-6.2705,-6.2379,-6.2384,-6.2387,0,-6.1562,-6.1634,-6.1827,-6.1881,-6.1919,-6.2007,-6.2087,-6.2163,-6.2219,-6.2225,-6.2279,-6.2255,-6.2367,-6.2273,-6.2428,-6.234,-6.2385,-6.2402,-6.2409,-6.2421,-6.2316,-6.2485,-6.2767,-6.2797,-6.243,-6.2426,-6.2423,0,-6.1737,-6.1881,-6.2016,-6.205,-6.2116,-6.2179,-6.2209,-6.226,-6.2313,-6.2382,-6.2416,-6.2497,-6.2542,-6.2604,-6.2602,-6.2534,-6.2759,-6.2665,-6.2767,-6.2767,-6.2817,-6.2815,-6.3113,-6.2845,-6.2845,-6.2844,-6.2844,0,-6.1968,-6.2089,-6.2096,-6.2179,-6.2312,-6.2302,-6.2434,-6.2457,-6.2503,-6.2589,-6.2552,-6.2633,-6.2626,-6.2707,-6.2706,-6.2835,-6.2855,-6.2862,-6.2861,-6.2866,-6.2866,-6.2897,-6.2884,-6.2852,-6.285,-6.2849,-6.2847,0,-6.2187,-6.2196,-6.234,-6.2391,-6.2406,-6.2502,-6.2545,-6.2623,-6.2634,-6.2744,-6.2769,-6.2787,-6.2881,-6.2886,-6.2993,-6.2992,-6.315,-6.3132,-6.3131,-6.3129,-6.3231,-6.3222,-6.356,-6.3604,-6.3307,-6.331,-6.3313,0,-6.2334,-6.2426,-6.2487,-6.2542,-6.2577,-6.2666,-6.2721,-6.2714,-6.2772,-6.2843,-6.2913,-6.3004,-6.3076,-6.3228,-6.3251,-6.3333,-6.3318,-6.3431,-6.333,-6.3333,-6.3321,-6.3316,-6.3325,-6.3451,-6.3454,-6.3457,-6.3459,0,-6.2596,-6.2596,-6.2676,-6.2759,-6.2825,-6.289,-6.2949,-6.2996,-6.2996,-6.3063,-6.316,-6.3216,-6.3327,-6.3418,-6.3498,-6.3527,-6.3494,-6.349,-6.3519,-6.3526,-6.3522,-6.3527,-6.3186,-6.3483,-6.3481,-6.3479,-6.3478,-6.3477,-6.2784,-6.2864,-6.2919,-6.301,-6.3054,-6.3111,-6.3187,-6.3209,-6.329,-6.3381,-6.3371,-6.3478,-6.3532,-6.3636,-6.3672,-6.3755,-6.3716,-6.3756,-6.3767,-6.3777,-6.3789,-6.3508,-6.3769,-6.3768,-6.3768,-6.3767,-6.3767,0,-6.3044,-6.3077,-6.3161,-6.3247,-6.3318,-6.3281,-6.3345,-6.3407,-6.3502,-6.3555,-6.3628,-6.3739,-6.3827,-6.3856,-6.3941,-6.4002,-6.3988,-6.4024,-6.402,-6.4028,-6.3818,-6.3786,-6.4033,-6.4033,-6.4033,-6.4033,-6.4033,-6.4033,-6.3188,-6.3321,-6.3328,-6.3482,-6.3514,-6.362,-6.366,-6.3712,-6.3755,-6.3881,-6.3954,-6.3973,-6.4016,-6.4104,-6.4183,-6.4189,-6.4222,-6.4265,-6.4265,-6.4069,-6.4042,-6.4017,-6.3986,-6.4272,-6.4272,-6.4467,-6.4469,-6.447]}]]